User: anonymous   Login
Location: NJAA Observatory
(40.6819°N, 74.8979°W)
Time: 20:21:08
(UTC-04:00)
Language:

Iridium 4 - Orbit

View from above orbital plane
View from above orbital plane
View from above satellite
View from above satellite

Ground track
Ground track

The orbit data is extracted from the following two-line orbital elements,

1 24796U 97020E   17176.50717420 +.00000112 +00000-0 +32422-4 0  9995
2 24796 086.3957 314.3591 0002286 092.5332 310.6984 14.35161062054498
Epoch (UTC): 25 June 2017 12:10:19
Eccentricity: 0.0002286
inclination: 86.3957°
perigee height: 773 km
apogee height: 776 km
right ascension of ascending node: 314.3591°
argument of perigee: 92.5332°
revolutions per day: 14.35161062
mean anomaly at epoch: 310.6984°
orbit number at epoch: 5449

The dashed part of the orbit path shows where the satellite is in the earth's shadow,  

DLR